sat.trackr.live / text

‹ back to catalog

STARLINK-32080

NORAD 59683 · 2024-086B

PAYLOAD ACTIVE UNKNOWN

§ Identity

Operator
Country
US
Launch date
2024-05-08
Launch site
AFETR
Launch vehicle
Mass (kg)
RCS (m²)

Purposes: comms

External: N2YO · Heavens-Above · Gunter

§ Orbital elements

Epoch: 2026-09-21T16:45:28.094112Z

Period
94.27 min
Inclination
43.0052°
Eccentricity
0.0001385
Mean motion
15.27581290 rev/d
Perigee alt
482.1 km
Apogee alt
484.0 km
Semi-major
6,861.2 km
B*
3.8588e-5
RAAN
36.8429°
Arg perigee
267.1953°
Mean anomaly
92.8740°
Rev number
13,405

§ Raw data

STARLINK-320801 59683U 24086B   26264.69824183  .00000800  00000+0  38588-4 0  99952 59683  43.0052  36.8429 0001385 267.1953  92.8740 15.27581290134052

JSON: /api/v1/satellites/59683 · /tle

For live sub-satellite position, see the globe view (requires WebGL).

§ Visibility from observer

Set your observer location to see the next 7 days of passes ≥ 10°. The values pass through the URL so the page stays shareable.

No JS? Fill the form by hand. The geolocation button needs JavaScript.